Time,TemperatureF,DewpointF,PressureIn,WindDirection,WindDirectionDegrees,WindSpeedMPH,WindSpeedGustMPH,Humidity,HourlyPrecipIn,Conditions,Clouds,dailyrainin,SoftwareType,DateUTC
2013-05-19 00:01:00,54.5,45.7,30.55,SSW,202,0.0,0.0,73,0.00,,,0.00,WUHU21623XXSP,2013-05-19 04:01:00,
2013-05-19 00:06:00,54.3,45.5,30.55,WSW,247,0.0,0.0,72,0.00,,,0.00,WUHU21623XXSP,2013-05-19 04:06:00,
2013-05-19 00:11:00,54.3,45.5,30.55,WSW,247,0.0,0.0,72,0.00,,,0.00,WUHU21623XXSP,2013-05-19 04:11:00,
2013-05-19 00:16:00,54.1,45.3,30.55,WSW,247,0.0,0.0,72,0.00,,,0.00,WUHU21623XXSP,2013-05-19 04:16:00,
2013-05-19 00:21:00,54.0,45.1,30.55,WSW,247,0.0,0.0,72,0.00,,,0.00,WUHU21623XXSP,2013-05-19 04:21:00,
2013-05-19 00:26:00,53.8,45.1,30.55,WSW,247,0.0,0.0,72,0.00,,,0.00,WUHU21623XXSP,2013-05-19 04:26:00,
2013-05-19 00:32:00,53.8,44.9,30.55,WSW,247,0.0,0.0,72,0.00,,,0.00,WUHU21623XXSP,2013-05-19 04:32:00,
2013-05-19 00:37:00,53.4,44.6,30.55,WSW,247,0.0,0.0,72,0.00,,,0.00,WUHU21623XXSP,2013-05-19 04:37:00,
2013-05-19 00:42:00,53.4,44.6,30.55,WSW,247,0.0,0.0,72,0.00,,,0.00,WUHU21623XXSP,2013-05-19 04:42:00,
2013-05-19 00:47:00,53.4,45.0,30.55,WSW,247,0.0,0.0,73,0.00,,,0.00,WUHU21623XXSP,2013-05-19 04:47:00,
2013-05-19 00:52:00,53.2,44.8,30.55,WSW,247,0.0,0.0,73,0.00,,,0.00,WUHU21623XXSP,2013-05-19 04:52:00,
2013-05-19 00:57:00,53.2,44.8,30.55,SSW,202,0.0,0.0,73,0.00,,,0.00,WUHU21623XXSP,2013-05-19 04:57:00,
2013-05-19 01:02:00,53.1,44.6,30.55,SSW,202,0.0,0.0,73,0.00,,,0.00,WUHU21623XXSP,2013-05-19 05:02:00,
2013-05-19 01:07:00,52.9,44.8,30.55,SSW,202,0.0,0.0,74,0.00,,,0.00,WUHU21623XXSP,2013-05-19 05:07:00,
2013-05-19 01:12:00,52.9,44.8,30.55,SSW,202,0.0,0.0,74,0.00,,,0.00,WUHU21623XXSP,2013-05-19 05:12:00,
2013-05-19 01:17:00,52.9,45.2,30.54,SSW,202,0.0,0.0,75,0.00,,,0.00,WUHU21623XXSP,2013-05-19 05:17:00,
2013-05-19 01:22:00,52.7,45.0,30.54,SSW,202,0.0,0.0,75,0.00,,,0.00,WUHU21623XXSP,2013-05-19 05:22:00,
2013-05-19 01:27:00,52.7,45.4,30.54,SSW,202,0.0,0.0,76,0.00,,,0.00,WUHU21623XXSP,2013-05-19 05:27:00,
2013-05-19 01:32:00,52.5,45.2,30.54,SSW,202,0.0,0.0,76,0.00,,,0.00,WUHU21623XXSP,2013-05-19 05:32:00,
2013-05-19 01:37:00,52.5,45.5,30.54,NW,315,0.0,0.0,77,0.00,,,0.00,WUHU21623XXSP,2013-05-19 05:37:00,
2013-05-19 01:42:00,52.5,45.5,30.53,NW,315,0.0,0.0,77,0.00,,,0.00,WUHU21623XXSP,2013-05-19 05:42:00,
2013-05-19 01:47:00,52.3,45.4,30.53,NW,315,0.0,0.0,77,0.00,,,0.00,WUHU21623XXSP,2013-05-19 05:47:00,
2013-05-19 01:52:00,52.3,45.4,30.53,NW,315,0.0,0.0,77,0.00,,,0.00,WUHU21623XXSP,2013-05-19 05:52:00,
2013-05-19 01:57:00,52.3,45.4,30.53,NW,315,0.0,0.0,77,0.00,,,0.00,WUHU21623XXSP,2013-05-19 05:57:00,
2013-05-19 02:02:00,52.3,45.4,30.53,NW,315,0.0,0.0,77,0.00,,,0.00,WUHU21623XXSP,2013-05-19 06:02:00,
2013-05-19 02:07:00,52.2,45.5,30.52,West,270,0.0,0.0,78,0.00,,,0.00,WUHU21623XXSP,2013-05-19 06:07:00,
2013-05-19 02:12:00,52.2,45.5,30.51,West,270,0.0,0.0,78,0.00,,,0.00,WUHU21623XXSP,2013-05-19 06:12:00,
2013-05-19 02:17:00,52.2,45.5,30.51,West,270,0.0,0.0,78,0.00,,,0.00,WUHU21623XXSP,2013-05-19 06:17:00,
2013-05-19 02:22:00,52.2,45.5,30.51,West,270,0.0,0.0,78,0.00,,,0.00,WUHU21623XXSP,2013-05-19 06:22:00,
2013-05-19 02:27:00,52.2,45.5,30.51,West,270,0.0,0.0,78,0.00,,,0.00,WUHU21623XXSP,2013-05-19 06:27:00,
2013-05-19 02:32:00,52.2,45.5,30.51,WNW,292,0.0,0.0,78,0.00,,,0.00,WUHU21623XXSP,2013-05-19 06:32:00,
2013-05-19 02:37:00,52.2,45.5,30.51,WNW,292,0.0,0.0,78,0.00,,,0.00,WUHU21623XXSP,2013-05-19 06:37:00,
2013-05-19 02:42:00,52.0,45.3,30.51,WSW,247,0.0,0.0,78,0.00,,,0.00,WUHU21623XXSP,2013-05-19 06:42:00,
2013-05-19 02:47:00,52.0,45.3,30.52,WSW,247,0.0,0.0,78,0.00,,,0.00,WUHU21623XXSP,2013-05-19 06:47:00,
2013-05-19 02:53:00,52.0,45.3,30.52,WSW,247,0.0,0.0,78,0.00,,,0.00,WUHU21623XXSP,2013-05-19 06:53:00,
2013-05-19 02:58:00,51.8,45.2,30.52,WSW,247,0.0,0.0,78,0.00,,,0.00,WUHU21623XXSP,2013-05-19 06:58:00,
2013-05-19 03:03:00,51.8,45.2,30.52,WSW,247,0.0,0.0,78,0.00,,,0.00,WUHU21623XXSP,2013-05-19 07:03:00,
2013-05-19 03:08:00,51.6,45.0,30.51,WSW,247,0.0,0.0,78,0.00,,,0.00,WUHU21623XXSP,2013-05-19 07:08:00,
2013-05-19 03:13:00,51.6,45.0,30.51,WSW,247,0.0,0.0,78,0.00,,,0.00,WUHU21623XXSP,2013-05-19 07:13:00,
2013-05-19 03:18:00,51.6,45.0,30.52,WSW,247,0.0,0.0,78,0.00,,,0.00,WUHU21623XXSP,2013-05-19 07:18:00,
2013-05-19 03:23:00,51.4,45.3,30.52,WSW,247,0.0,0.0,79,0.00,,,0.00,WUHU21623XXSP,2013-05-19 07:23:00,
2013-05-19 03:28:00,51.4,45.2,30.53,SW,225,0.0,0.0,79,0.00,,,0.00,WUHU21623XXSP,2013-05-19 07:28:00,
2013-05-19 03:33:00,51.3,45.0,30.53,SW,225,0.0,0.0,79,0.00,,,0.00,WUHU21623XXSP,2013-05-19 07:33:00,
2013-05-19 03:38:00,51.1,44.8,30.53,SW,225,0.0,0.0,79,0.00,,,0.00,WUHU21623XXSP,2013-05-19 07:38:00,
2013-05-19 03:43:00,51.1,45.1,30.53,SW,225,0.0,0.0,80,0.00,,,0.00,WUHU21623XXSP,2013-05-19 07:43:00,
2013-05-19 03:48:00,51.1,45.1,30.53,SW,225,0.0,0.0,80,0.00,,,0.00,WUHU21623XXSP,2013-05-19 07:48:00,
2013-05-19 03:53:00,51.1,45.1,30.52,SW,225,0.0,0.0,80,0.00,,,0.00,WUHU21623XXSP,2013-05-19 07:53:00,
2013-05-19 03:58:00,50.9,45.0,30.52,NW,315,0.0,0.0,80,0.00,,,0.00,WUHU21623XXSP,2013-05-19 07:58:00,
2013-05-19 04:03:00,50.9,45.0,30.52,NW,315,0.0,0.0,80,0.00,,,0.00,WUHU21623XXSP,2013-05-19 08:03:00,
2013-05-19 04:08:00,50.7,44.8,30.52,NW,315,0.0,0.0,80,0.00,,,0.00,WUHU21623XXSP,2013-05-19 08:08:00,
2013-05-19 04:13:00,50.7,44.8,30.51,NW,315,0.0,0.0,80,0.00,,,0.00,WUHU21623XXSP,2013-05-19 08:13:00,
2013-05-19 04:18:00,50.7,44.8,30.51,NW,315,0.0,0.0,80,0.00,,,0.00,WUHU21623XXSP,2013-05-19 08:18:00,
2013-05-19 04:23:00,50.5,44.6,30.52,NW,315,0.0,0.0,80,0.00,,,0.00,WUHU21623XXSP,2013-05-19 08:23:00,
2013-05-19 04:28:00,50.5,44.6,30.52,NW,315,0.0,0.0,80,0.00,,,0.00,WUHU21623XXSP,2013-05-19 08:28:00,
2013-05-19 04:33:00,50.4,44.4,30.52,NW,315,0.0,0.0,80,0.00,,,0.00,WUHU21623XXSP,2013-05-19 08:33:00,
2013-05-19 04:38:00,50.4,44.4,30.53,NW,315,0.0,0.0,80,0.00,,,0.00,WUHU21623XXSP,2013-05-19 08:38:00,
2013-05-19 04:43:00,50.4,44.4,30.53,NW,315,0.0,0.0,80,0.00,,,0.00,WUHU21623XXSP,2013-05-19 08:43:00,
2013-05-19 04:48:00,50.4,44.4,30.53,NW,315,0.0,0.0,80,0.00,,,0.00,WUHU21623XXSP,2013-05-19 08:48:00,
2013-05-19 04:53:00,50.5,44.9,30.53,NW,315,0.0,0.0,81,0.00,,,0.00,WUHU21623XXSP,2013-05-19 08:53:00,
2013-05-19 04:58:00,50.5,44.9,30.52,NW,315,0.0,0.0,81,0.00,,,0.00,WUHU21623XXSP,2013-05-19 08:58:00,
2013-05-19 05:03:00,50.7,44.9,30.53,NW,315,0.0,0.0,81,0.00,,,0.00,WUHU21623XXSP,2013-05-19 09:03:00,
2013-05-19 05:08:00,50.9,45.3,30.52,NW,315,0.0,0.0,81,0.00,,,0.00,WUHU21623XXSP,2013-05-19 09:08:00,
2013-05-19 05:13:00,50.9,45.3,30.53,NW,315,0.0,0.0,81,0.00,,,0.00,WUHU21623XXSP,2013-05-19 09:13:00,
2013-05-19 05:18:00,51.1,45.4,30.53,NW,315,0.0,0.0,81,0.00,,,0.00,WUHU21623XXSP,2013-05-19 09:18:00,
2013-05-19 05:23:00,51.1,45.4,30.53,NW,315,0.0,0.0,81,0.00,,,0.00,WUHU21623XXSP,2013-05-19 09:23:00,
2013-05-19 05:28:00,51.3,45.6,30.53,NW,315,0.0,0.0,81,0.00,,,0.00,WUHU21623XXSP,2013-05-19 09:28:00,
2013-05-19 05:33:00,51.3,45.6,30.53,NW,315,0.0,0.0,81,0.00,,,0.00,WUHU21623XXSP,2013-05-19 09:33:00,
2013-05-19 05:38:00,51.3,45.6,30.53,NW,315,0.0,0.0,81,0.00,,,0.00,WUHU21623XXSP,2013-05-19 09:38:00,
2013-05-19 05:43:00,51.1,45.6,30.52,NW,315,0.0,0.0,81,0.00,,,0.00,WUHU21623XXSP,2013-05-19 09:43:00,
2013-05-19 05:48:00,51.1,45.4,30.52,NW,315,0.0,0.0,81,0.00,,,0.00,WUHU21623XXSP,2013-05-19 09:48:00,
2013-05-19 05:53:00,50.9,45.3,30.52,NW,315,0.0,0.0,81,0.00,,,0.00,WUHU21623XXSP,2013-05-19 09:53:00,
2013-05-19 05:58:00,50.9,45.3,30.52,NW,315,0.0,0.0,81,0.00,,,0.00,WUHU21623XXSP,2013-05-19 09:58:00,
2013-05-19 06:03:00,50.7,44.8,30.52,NW,315,0.0,0.0,80,0.00,,,0.00,WUHU21623XXSP,2013-05-19 10:03:00,
2013-05-19 06:08:00,50.7,45.1,30.52,NW,315,0.0,0.0,81,0.00,,,0.00,WUHU21623XXSP,2013-05-19 10:08:00,
2013-05-19 06:14:00,50.7,45.1,30.53,NW,315,0.0,0.0,81,0.00,,,0.00,WUHU21623XXSP,2013-05-19 10:14:00,
2013-05-19 06:19:00,50.7,45.1,30.52,NW,315,0.0,0.0,81,0.00,,,0.00,WUHU21623XXSP,2013-05-19 10:19:00,
2013-05-19 06:24:00,50.5,44.9,30.53,NW,315,0.0,0.0,81,0.00,,,0.00,WUHU21623XXSP,2013-05-19 10:24:00,
2013-05-19 06:29:00,50.5,44.9,30.53,NW,315,0.0,0.0,81,0.00,,,0.00,WUHU21623XXSP,2013-05-19 10:29:00,
2013-05-19 06:34:00,50.5,44.9,30.53,NW,315,0.0,0.0,81,0.00,,,0.00,WUHU21623XXSP,2013-05-19 10:34:00,
2013-05-19 06:39:00,50.5,44.9,30.53,NW,315,0.0,0.0,81,0.00,,,0.00,WUHU21623XXSP,2013-05-19 10:39:00,
2013-05-19 06:44:00,50.5,44.9,30.53,NW,315,0.0,0.0,81,0.00,,,0.00,WUHU21623XXSP,2013-05-19 10:44:00,
2013-05-19 06:49:00,50.7,45.1,30.53,NW,315,0.0,0.0,81,0.00,,,0.00,WUHU21623XXSP,2013-05-19 10:49:00,
2013-05-19 06:54:00,50.7,45.1,30.53,NW,315,0.0,0.0,81,0.00,,,0.00,WUHU21623XXSP,2013-05-19 10:54:00,
2013-05-19 06:59:00,50.7,45.1,30.54,NW,315,0.0,0.0,81,0.00,,,0.00,WUHU21623XXSP,2013-05-19 10:59:00,
2013-05-19 07:04:00,50.9,45.3,30.53,NW,315,0.0,0.0,81,0.00,,,0.00,WUHU21623XXSP,2013-05-19 11:04:00,
2013-05-19 07:09:00,51.1,45.4,30.53,NW,315,0.0,0.0,81,0.00,,,0.00,WUHU21623XXSP,2013-05-19 11:09:00,
2013-05-19 07:14:00,51.1,45.4,30.53,NW,315,0.0,0.0,81,0.00,,,0.00,WUHU21623XXSP,2013-05-19 11:14:00,
2013-05-19 07:19:00,51.4,45.8,30.54,NW,315,0.0,0.0,81,0.00,,,0.00,WUHU21623XXSP,2013-05-19 11:19:00,
2013-05-19 07:24:00,51.6,46.0,30.53,NW,315,0.0,0.0,81,0.00,,,0.00,WUHU21623XXSP,2013-05-19 11:24:00,
2013-05-19 07:29:00,51.8,46.2,30.53,NW,315,0.0,0.0,81,0.00,,,0.00,WUHU21623XXSP,2013-05-19 11:29:00,
2013-05-19 07:34:00,52.2,46.3,30.53,NW,315,0.0,0.0,82,0.00,,,0.00,WUHU21623XXSP,2013-05-19 11:34:00,
2013-05-19 07:39:00,52.3,47.0,30.53,NW,315,0.0,0.0,82,0.00,,,0.00,WUHU21623XXSP,2013-05-19 11:39:00,
2013-05-19 07:44:00,52.5,47.2,30.53,NW,315,0.0,0.0,82,0.00,,,0.00,WUHU21623XXSP,2013-05-19 11:44:00,
2013-05-19 07:49:00,53.2,47.6,30.53,NW,315,0.0,0.0,82,0.00,,,0.00,WUHU21623XXSP,2013-05-19 11:49:00,
2013-05-19 07:54:00,53.4,48.1,30.53,North,0,0.0,0.0,82,0.00,,,0.00,WUHU21623XXSP,2013-05-19 11:54:00,
2013-05-19 07:59:00,53.8,48.4,30.53,NNW,337,0.0,0.0,82,0.00,,,0.00,WUHU21623XXSP,2013-05-19 11:59:00,
2013-05-19 08:04:00,54.3,48.9,30.53,NNW,337,0.0,0.0,82,0.00,,,0.00,WUHU21623XXSP,2013-05-19 12:04:00,
2013-05-19 08:09:00,54.9,49.1,30.52,NNW,337,0.0,0.0,81,0.00,,,0.00,WUHU21623XXSP,2013-05-19 12:09:00,
2013-05-19 08:14:00,55.2,49.4,30.52,North,0,0.0,0.0,81,0.00,,,0.00,WUHU21623XXSP,2013-05-19 12:14:00,
2013-05-19 08:19:00,55.9,49.8,30.51,North,0,0.0,0.0,80,0.00,,,0.00,WUHU21623XXSP,2013-05-19 12:19:00,
2013-05-19 08:24:00,56.3,50.2,30.51,North,0,0.0,0.0,80,0.00,,,0.00,WUHU21623XXSP,2013-05-19 12:24:00,
2013-05-19 08:29:00,56.5,50.4,30.51,North,0,0.0,0.0,80,0.00,,,0.00,WUHU21623XXSP,2013-05-19 12:29:00,
2013-05-19 08:34:00,57.0,50.4,30.51,North,0,0.0,0.0,79,0.00,,,0.00,WUHU21623XXSP,2013-05-19 12:34:00,
2013-05-19 08:39:00,57.0,50.5,30.52,North,0,0.0,0.0,78,0.00,,,0.00,WUHU21623XXSP,2013-05-19 12:39:00,
2013-05-19 08:44:00,57.6,50.7,30.52,North,0,0.0,0.0,78,0.00,,,0.00,WUHU21623XXSP,2013-05-19 12:44:00,
2013-05-19 08:49:00,57.9,51.1,30.52,North,0,0.0,0.0,78,0.00,,,0.00,WUHU21623XXSP,2013-05-19 12:49:00,
2013-05-19 08:54:00,58.3,51.1,30.52,SSW,202,0.0,0.0,77,0.00,,,0.00,WUHU21623XXSP,2013-05-19 12:54:00,
2013-05-19 08:59:00,58.8,51.6,30.51,SSW,202,0.0,0.0,77,0.00,,,0.00,WUHU21623XXSP,2013-05-19 12:59:00,
2013-05-19 09:04:00,59.0,51.4,30.51,SSE,157,0.0,0.0,76,0.00,,,0.00,WUHU21623XXSP,2013-05-19 13:04:00,
2013-05-19 09:09:00,59.5,51.6,30.51,SSE,157,0.0,0.0,76,0.00,,,0.00,WUHU21623XXSP,2013-05-19 13:09:00,
2013-05-19 09:15:00,59.9,52.0,30.52,SSE,157,0.0,0.0,75,0.00,,,0.00,WUHU21623XXSP,2013-05-19 13:15:00,
2013-05-19 09:20:00,60.3,52.0,30.51,SSE,157,0.0,0.0,74,0.00,,,0.00,WUHU21623XXSP,2013-05-19 13:20:00,
2013-05-19 09:25:00,60.6,52.0,30.52,SSE,157,0.0,0.0,73,0.00,,,0.00,WUHU21623XXSP,2013-05-19 13:25:00,
2013-05-19 09:30:00,61.0,52.3,30.52,SSE,157,0.0,0.0,73,0.00,,,0.00,WUHU21623XXSP,2013-05-19 13:30:00,
2013-05-19 09:35:00,61.3,52.3,30.51,SSE,157,0.0,0.0,72,0.00,,,0.00,WUHU21623XXSP,2013-05-19 13:35:00,
2013-05-19 09:40:00,61.7,52.3,30.51,SSE,157,0.0,0.0,71,0.00,,,0.00,WUHU21623XXSP,2013-05-19 13:40:00,
2013-05-19 09:45:00,62.4,53.3,30.51,SSE,157,0.0,0.0,72,0.00,,,0.00,WUHU21623XXSP,2013-05-19 13:45:00,
2013-05-19 09:50:00,62.6,53.1,30.51,SSE,157,0.0,0.0,71,0.00,,,0.00,WUHU21623XXSP,2013-05-19 13:50:00,
2013-05-19 09:55:00,62.8,52.9,30.51,SSE,157,0.0,0.0,70,0.00,,,0.00,WUHU21623XXSP,2013-05-19 13:55:00,
2013-05-19 10:00:00,63.3,53.4,30.51,ESE,112,0.0,0.0,70,0.00,,,0.00,WUHU21623XXSP,2013-05-19 14:00:00,
2013-05-19 10:05:00,63.7,53.3,30.51,East,90,0.0,0.0,69,0.00,,,0.00,WUHU21623XXSP,2013-05-19 14:05:00,
2013-05-19 10:10:00,64.2,53.9,30.51,East,90,0.0,0.0,69,0.00,,,0.00,WUHU21623XXSP,2013-05-19 14:10:00,
2013-05-19 10:15:00,64.8,54.0,30.51,South,180,0.0,0.0,68,0.00,,,0.00,WUHU21623XXSP,2013-05-19 14:15:00,
2013-05-19 10:20:00,65.1,54.1,30.51,South,180,0.0,0.0,68,0.00,,,0.00,WUHU21623XXSP,2013-05-19 14:20:00,
2013-05-19 10:25:00,65.7,54.8,30.51,South,180,0.0,0.0,68,0.00,,,0.00,WUHU21623XXSP,2013-05-19 14:25:00,
2013-05-19 10:30:00,66.2,54.9,30.51,ESE,112,0.0,0.0,67,0.00,,,0.00,WUHU21623XXSP,2013-05-19 14:30:00,
2013-05-19 10:35:00,66.6,55.2,30.51,ESE,112,0.0,0.0,67,0.00,,,0.00,WUHU21623XXSP,2013-05-19 14:35:00,
2013-05-19 10:40:00,66.9,54.7,30.51,ESE,112,0.0,0.0,65,0.00,,,0.00,WUHU21623XXSP,2013-05-19 14:40:00,
2013-05-19 10:45:00,67.5,54.8,30.51,South,180,0.0,0.0,64,0.00,,,0.00,WUHU21623XXSP,2013-05-19 14:45:00,
2013-05-19 10:50:00,67.8,54.7,30.51,NE,45,0.0,1.6,63,0.00,,,0.00,WUHU21623XXSP,2013-05-19 14:50:00,
2013-05-19 10:55:00,68.2,55.1,30.50,WSW,247,0.0,1.6,63,0.00,,,0.00,WUHU21623XXSP,2013-05-19 14:55:00,
2013-05-19 11:00:00,68.5,55.8,30.50,WSW,247,0.0,0.0,64,0.00,,,0.00,WUHU21623XXSP,2013-05-19 15:00:00,
2013-05-19 11:05:00,68.9,56.2,30.50,South,180,0.0,0.0,64,0.00,,,0.00,WUHU21623XXSP,2013-05-19 15:05:00,
2013-05-19 11:10:00,69.6,56.0,30.49,SW,225,0.0,0.0,62,0.00,,,0.00,WUHU21623XXSP,2013-05-19 15:10:00,
2013-05-19 11:15:00,70.0,56.8,30.49,SW,225,0.0,0.0,63,0.00,,,0.00,WUHU21623XXSP,2013-05-19 15:15:00,
2013-05-19 11:20:00,70.3,57.1,30.49,West,270,0.0,0.0,63,0.00,,,0.00,WUHU21623XXSP,2013-05-19 15:20:00,
2013-05-19 11:26:00,71.1,57.4,30.49,WNW,292,1.3,1.3,62,0.00,,,0.00,WUHU21623XXSP,2013-05-19 15:26:00,
2013-05-19 11:30:00,71.4,57.3,30.49,NNW,337,0.0,1.3,61,0.00,,,0.00,WUHU21623XXSP,2013-05-19 15:30:00,
2013-05-19 11:36:00,72.0,57.6,30.49,NNW,337,0.0,0.0,62,0.00,,,0.00,WUHU21623XXSP,2013-05-19 15:36:00,
2013-05-19 11:41:00,72.7,58.0,30.49,WNW,292,0.0,0.0,60,0.00,,,0.00,WUHU21623XXSP,2013-05-19 15:41:00,
2013-05-19 11:46:00,73.0,57.8,30.49,WNW,292,0.0,1.3,59,0.00,,,0.00,WUHU21623XXSP,2013-05-19 15:46:00,
2013-05-19 11:51:00,73.8,58.0,30.49,NW,315,0.0,1.3,58,0.00,,,0.00,WUHU21623XXSP,2013-05-19 15:51:00,
2013-05-19 11:56:00,74.1,57.8,30.49,NW,315,0.0,0.0,57,0.00,,,0.00,WUHU21623XXSP,2013-05-19 15:56:00,
2013-05-19 12:01:00,74.5,58.5,30.49,NNE,22,0.0,0.0,57,0.00,,,0.00,WUHU21623XXSP,2013-05-19 16:01:00,
2013-05-19 12:06:00,75.0,58.2,30.48,NE,45,0.0,0.0,56,0.00,,,0.00,WUHU21623XXSP,2013-05-19 16:06:00,
2013-05-19 12:11:00,75.6,58.2,30.48,SSE,157,0.0,0.0,55,0.00,,,0.00,WUHU21623XXSP,2013-05-19 16:11:00,
2013-05-19 12:16:00,75.9,60.1,30.48,SE,135,0.0,0.0,58,0.00,,,0.00,WUHU21623XXSP,2013-05-19 16:16:00,
2013-05-19 12:21:00,76.5,59.6,30.48,NNE,22,0.0,0.0,56,0.00,,,0.00,WUHU21623XXSP,2013-05-19 16:21:00,
2013-05-19 12:26:00,76.8,60.4,30.48,East,90,0.0,0.0,57,0.00,,,0.00,WUHU21623XXSP,2013-05-19 16:26:00,
2013-05-19 12:31:00,77.0,59.9,30.47,ENE,67,0.0,0.0,56,0.00,,,0.00,WUHU21623XXSP,2013-05-19 16:31:00,
2013-05-19 12:36:00,77.5,60.5,30.46,NW,315,0.0,0.0,56,0.00,,,0.00,WUHU21623XXSP,2013-05-19 16:36:00,
2013-05-19 12:41:00,77.9,60.4,30.46,NNE,22,0.0,0.0,55,0.00,,,0.00,WUHU21623XXSP,2013-05-19 16:41:00,
2013-05-19 12:46:00,78.4,60.4,30.46,NNE,22,0.0,0.0,54,0.00,,,0.00,WUHU21623XXSP,2013-05-19 16:46:00,
2013-05-19 12:51:00,79.0,61.1,30.46,ENE,67,0.0,0.0,55,0.00,,,0.00,WUHU21623XXSP,2013-05-19 16:51:00,
2013-05-19 12:56:00,79.3,60.7,30.46,SE,135,0.0,0.0,53,0.00,,,0.00,WUHU21623XXSP,2013-05-19 16:56:00,
2013-05-19 13:01:00,79.9,61.4,30.46,ESE,112,0.0,0.0,52,0.00,,,0.00,WUHU21623XXSP,2013-05-19 17:01:00,
2013-05-19 13:06:00,80.4,61.1,30.46,SSE,157,2.0,2.0,52,0.00,,,0.00,WUHU21623XXSP,2013-05-19 17:06:00,
2013-05-19 13:11:00,81.1,61.3,30.45,East,90,0.0,2.0,51,0.00,,,0.00,WUHU21623XXSP,2013-05-19 17:11:00,
2013-05-19 13:16:00,81.5,61.1,30.46,NW,315,0.0,2.0,50,0.00,,,0.00,WUHU21623XXSP,2013-05-19 17:16:00,
2013-05-19 13:21:00,82.0,62.1,30.45,ESE,112,0.0,0.0,51,0.00,,,0.00,WUHU21623XXSP,2013-05-19 17:21:00,
2013-05-19 13:26:00,82.2,62.8,30.45,East,90,0.0,0.0,52,0.00,,,0.00,WUHU21623XXSP,2013-05-19 17:26:00,
2013-05-19 13:31:00,82.9,62.9,30.45,East,90,0.0,0.0,51,0.00,,,0.00,WUHU21623XXSP,2013-05-19 17:31:00,
2013-05-19 13:36:00,83.5,62.3,30.44,East,90,1.1,1.8,49,0.00,,,0.00,WUHU21623XXSP,2013-05-19 17:36:00,
2013-05-19 13:41:00,83.7,61.3,30.45,ESE,112,0.0,1.1,47,0.00,,,0.00,WUHU21623XXSP,2013-05-19 17:41:00,
2013-05-19 13:46:00,83.8,61.4,30.44,South,180,0.0,0.0,47,0.00,,,0.00,WUHU21623XXSP,2013-05-19 17:46:00,
2013-05-19 13:51:00,83.7,61.3,30.44,WSW,247,0.0,0.0,47,0.00,,,0.00,WUHU21623XXSP,2013-05-19 17:51:00,
2013-05-19 13:56:00,83.7,61.3,30.44,WNW,292,0.0,0.0,47,0.00,,,0.00,WUHU21623XXSP,2013-05-19 17:56:00,
2013-05-19 14:01:00,84.2,62.4,30.45,WNW,292,0.0,0.0,48,0.00,,,0.00,WUHU21623XXSP,2013-05-19 18:01:00,
2013-05-19 14:06:00,84.7,61.6,30.45,NE,45,3.6,3.6,46,0.00,,,0.00,WUHU21623XXSP,2013-05-19 18:06:00,
2013-05-19 14:11:00,84.9,61.8,30.45,NW,315,0.0,3.6,46,0.00,,,0.00,WUHU21623XXSP,2013-05-19 18:11:00,
2013-05-19 14:17:00,85.3,61.5,30.45,NW,315,0.0,0.0,45,0.00,,,0.00,WUHU21623XXSP,2013-05-19 18:17:00,
2013-05-19 14:22:00,85.6,61.2,30.45,WSW,247,0.0,0.0,45,0.00,,,0.00,WUHU21623XXSP,2013-05-19 18:22:00,
2013-05-19 14:27:00,85.6,61.8,30.45,NE,45,0.0,0.0,45,0.00,,,0.00,WUHU21623XXSP,2013-05-19 18:27:00,
2013-05-19 14:32:00,85.8,61.4,30.45,ENE,67,0.0,0.0,44,0.00,,,0.00,WUHU21623XXSP,2013-05-19 18:32:00,
2013-05-19 14:37:00,85.8,62.0,30.44,NNW,337,0.0,0.0,45,0.00,,,0.00,WUHU21623XXSP,2013-05-19 18:37:00,
2013-05-19 14:42:00,85.6,62.5,30.44,North,0,0.0,0.0,46,0.00,,,0.00,WUHU21623XXSP,2013-05-19 18:42:00,
2013-05-19 14:47:00,85.8,62.6,30.45,ENE,67,0.7,0.7,46,0.00,,,0.00,WUHU21623XXSP,2013-05-19 18:47:00,
2013-05-19 14:52:00,85.8,62.0,30.44,WNW,292,0.0,0.7,45,0.00,,,0.00,WUHU21623XXSP,2013-05-19 18:52:00,
2013-05-19 14:57:00,86.2,62.9,30.44,WNW,292,0.0,0.0,46,0.00,,,0.00,WUHU21623XXSP,2013-05-19 18:57:00,
2013-05-19 15:02:00,86.2,62.3,30.44,SW,225,0.0,0.0,45,0.00,,,0.00,WUHU21623XXSP,2013-05-19 19:02:00,
2013-05-19 15:07:00,85.8,61.4,30.44,SW,225,0.0,0.0,44,0.00,,,0.00,WUHU21623XXSP,2013-05-19 19:07:00,
2013-05-19 15:12:00,86.2,62.3,30.43,NNE,22,0.0,0.0,45,0.00,,,0.00,WUHU21623XXSP,2013-05-19 19:12:00,
2013-05-19 15:17:00,86.9,62.2,30.43,WSW,247,0.0,0.0,44,0.00,,,0.00,WUHU21623XXSP,2013-05-19 19:17:00,
2013-05-19 15:22:00,87.3,62.7,30.43,NNE,22,0.0,0.0,44,0.00,,,0.00,WUHU21623XXSP,2013-05-19 19:22:00,
2013-05-19 15:27:00,87.6,62.3,30.43,WSW,247,0.0,0.0,43,0.00,,,0.00,WUHU21623XXSP,2013-05-19 19:27:00,
2013-05-19 15:32:00,87.8,61.9,30.43,NNW,337,1.3,2.7,42,0.00,,,0.00,WUHU21623XXSP,2013-05-19 19:32:00,
2013-05-19 15:37:00,88.2,62.2,30.43,ESE,112,0.0,3.1,42,0.00,,,0.00,WUHU21623XXSP,2013-05-19 19:37:00,
2013-05-19 15:42:00,88.7,62.6,30.42,ESE,112,0.0,3.1,42,0.00,,,0.00,WUHU21623XXSP,2013-05-19 19:42:00,
2013-05-19 15:47:00,89.2,63.7,30.42,NE,45,0.0,0.0,43,0.00,,,0.00,WUHU21623XXSP,2013-05-19 19:47:00,
2013-05-19 15:52:00,89.2,63.7,30.42,NW,315,0.0,2.2,43,0.00,,,0.00,WUHU21623XXSP,2013-05-19 19:52:00,
2013-05-19 15:57:00,89.4,63.2,30.42,North,0,0.0,2.2,42,0.00,,,0.00,WUHU21623XXSP,2013-05-19 19:57:00,
2013-05-19 16:02:00,89.4,63.2,30.41,South,180,1.6,1.6,42,0.00,,,0.00,WUHU21623XXSP,2013-05-19 20:02:00,
2013-05-19 16:07:00,88.5,62.5,30.41,SSW,202,0.0,1.6,42,0.00,,,0.00,WUHU21623XXSP,2013-05-19 20:07:00,
2013-05-19 16:12:00,86.9,61.7,30.41,SSW,202,0.0,0.0,43,0.00,,,0.00,WUHU21623XXSP,2013-05-19 20:12:00,
2013-05-19 16:17:00,86.5,61.4,30.41,SW,225,0.0,0.0,43,0.00,,,0.00,WUHU21623XXSP,2013-05-19 20:17:00,
2013-05-19 16:22:00,87.4,63.4,30.40,ESE,112,0.0,0.0,45,0.00,,,0.00,WUHU21623XXSP,2013-05-19 20:22:00,
2013-05-19 16:27:00,87.8,62.5,30.40,NE,45,0.0,0.0,43,0.00,,,0.00,WUHU21623XXSP,2013-05-19 20:27:00,
2013-05-19 16:32:00,87.6,63.0,30.40,NNE,22,0.0,0.0,44,0.00,,,0.00,WUHU21623XXSP,2013-05-19 20:32:00,
2013-05-19 16:37:00,87.8,61.9,30.40,NNW,337,0.0,0.0,42,0.00,,,0.00,WUHU21623XXSP,2013-05-19 20:37:00,
2013-05-19 16:42:00,87.1,61.9,30.40,NW,315,0.0,0.0,43,0.00,,,0.00,WUHU21623XXSP,2013-05-19 20:42:00,
2013-05-19 16:47:00,86.9,61.7,30.40,NW,315,0.0,0.0,43,0.00,,,0.00,WUHU21623XXSP,2013-05-19 20:47:00,
2013-05-19 16:52:00,87.1,61.9,30.40,NW,315,0.0,0.0,43,0.00,,,0.00,WUHU21623XXSP,2013-05-19 20:52:00,
2013-05-19 16:57:00,87.4,62.2,30.38,West,270,0.0,0.0,43,0.00,,,0.00,WUHU21623XXSP,2013-05-19 20:57:00,
2013-05-19 17:02:00,87.6,62.3,30.38,NW,315,0.0,0.0,43,0.00,,,0.00,WUHU21623XXSP,2013-05-19 21:02:00,
2013-05-19 17:08:00,87.8,62.5,30.39,East,90,0.0,0.0,43,0.00,,,0.00,WUHU21623XXSP,2013-05-19 21:08:00,
2013-05-19 17:13:00,88.3,62.9,30.39,East,90,0.0,0.0,43,0.00,,,0.00,WUHU21623XXSP,2013-05-19 21:13:00,
2013-05-19 17:18:00,88.7,62.6,30.40,NNE,22,0.0,0.0,42,0.00,,,0.00,WUHU21623XXSP,2013-05-19 21:18:00,
2013-05-19 17:23:00,88.7,62.0,30.39,NNE,22,0.0,0.0,41,0.00,,,0.00,WUHU21623XXSP,2013-05-19 21:23:00,
2013-05-19 17:28:00,88.5,62.5,30.39,NNE,22,0.0,0.0,42,0.00,,,0.00,WUHU21623XXSP,2013-05-19 21:28:00,
2013-05-19 17:33:00,88.0,62.3,30.38,NNE,22,0.0,0.0,42,0.00,,,0.00,WUHU21623XXSP,2013-05-19 21:33:00,
2013-05-19 17:38:00,87.4,61.6,30.38,NW,315,0.0,0.0,42,0.00,,,0.00,WUHU21623XXSP,2013-05-19 21:38:00,
2013-05-19 17:43:00,87.1,61.9,30.38,NNE,22,0.0,0.0,43,0.00,,,0.00,WUHU21623XXSP,2013-05-19 21:43:00,
2013-05-19 17:48:00,87.4,62.2,30.38,NNE,22,0.0,0.0,43,0.00,,,0.00,WUHU21623XXSP,2013-05-19 21:48:00,
2013-05-19 17:53:00,88.0,63.3,30.38,NNE,22,0.0,0.0,44,0.00,,,0.00,WUHU21623XXSP,2013-05-19 21:53:00,
2013-05-19 17:58:00,88.2,63.4,30.37,NNE,22,1.8,1.8,44,0.00,,,0.00,WUHU21623XXSP,2013-05-19 21:58:00,
2013-05-19 18:03:00,88.0,63.3,30.37,WSW,247,0.0,1.8,44,0.00,,,0.00,WUHU21623XXSP,2013-05-19 22:03:00,
2013-05-19 18:08:00,87.4,62.8,30.38,ENE,67,0.0,0.0,44,0.00,,,0.00,WUHU21623XXSP,2013-05-19 22:08:00,
2013-05-19 18:13:00,87.4,62.2,30.38,West,270,0.0,0.0,43,0.00,,,0.00,WUHU21623XXSP,2013-05-19 22:13:00,
2013-05-19 18:18:00,86.7,62.2,30.38,South,180,1.1,1.1,44,0.00,,,0.00,WUHU21623XXSP,2013-05-19 22:18:00,
2013-05-19 18:23:00,86.2,62.3,30.37,ENE,67,0.0,1.6,45,0.00,,,0.00,WUHU21623XXSP,2013-05-19 22:23:00,
2013-05-19 18:28:00,85.8,61.4,30.37,NNE,22,0.0,1.6,44,0.00,,,0.00,WUHU21623XXSP,2013-05-19 22:28:00,
2013-05-19 18:33:00,85.6,61.2,30.37,ESE,112,0.0,0.0,44,0.00,,,0.00,WUHU21623XXSP,2013-05-19 22:33:00,
2013-05-19 18:38:00,85.1,61.3,30.38,ENE,67,0.0,0.0,45,0.00,,,0.00,WUHU21623XXSP,2013-05-19 22:38:00,
2013-05-19 18:43:00,85.1,61.2,30.37,East,90,0.0,0.0,46,0.00,,,0.00,WUHU21623XXSP,2013-05-19 22:43:00,
2013-05-19 18:48:00,84.7,61.6,30.37,ENE,67,0.0,0.0,46,0.00,,,0.00,WUHU21623XXSP,2013-05-19 22:48:00,
2013-05-19 18:53:00,84.0,61.6,30.36,ENE,67,0.0,0.0,47,0.00,,,0.00,WUHU21623XXSP,2013-05-19 22:53:00,
2013-05-19 18:58:00,83.8,61.4,30.36,SSW,202,0.0,0.0,47,0.00,,,0.00,WUHU21623XXSP,2013-05-19 22:58:00,
2013-05-19 19:03:00,83.1,60.7,30.36,North,0,0.0,0.0,47,0.00,,,0.00,WUHU21623XXSP,2013-05-19 23:03:00,
2013-05-19 19:08:00,82.8,60.4,30.37,North,0,0.0,0.0,48,0.00,,,0.00,WUHU21623XXSP,2013-05-19 23:08:00,
2013-05-19 19:13:00,82.6,60.8,30.36,North,0,0.0,0.0,48,0.00,,,0.00,WUHU21623XXSP,2013-05-19 23:13:00,
2013-05-19 19:18:00,82.2,61.1,30.37,NW,315,0.0,0.0,49,0.00,,,0.00,WUHU21623XXSP,2013-05-19 23:18:00,
2013-05-19 19:23:00,81.7,60.6,30.36,NW,315,0.0,0.0,49,0.00,,,0.00,WUHU21623XXSP,2013-05-19 23:23:00,
2013-05-19 19:28:00,81.7,60.6,30.37,NW,315,0.0,0.0,49,0.00,,,0.00,WUHU21623XXSP,2013-05-19 23:28:00,
2013-05-19 19:33:00,81.3,60.3,30.36,NNW,337,0.0,0.0,49,0.00,,,0.00,WUHU21623XXSP,2013-05-19 23:33:00,
2013-05-19 19:38:00,81.1,60.7,30.36,NNW,337,0.0,0.0,50,0.00,,,0.00,WUHU21623XXSP,2013-05-19 23:38:00,
2013-05-19 19:43:00,80.8,60.6,30.36,NNW,337,0.0,0.0,50,0.00,,,0.00,WUHU21623XXSP,2013-05-19 23:43:00,
2013-05-19 19:48:00,80.6,60.3,30.37,NNW,337,0.0,0.0,50,0.00,,,0.00,WUHU21623XXSP,2013-05-19 23:48:00,
2013-05-19 19:53:00,80.2,59.9,30.37,NNW,337,0.0,0.0,50,0.00,,,0.00,WUHU21623XXSP,2013-05-19 23:53:00,
2013-05-19 19:58:00,80.1,60.3,30.37,NNW,337,0.0,0.0,51,0.00,,,0.00,WUHU21623XXSP,2013-05-19 23:58:00,
2013-05-19 20:03:00,79.3,59.8,30.38,NNW,337,0.0,0.0,51,0.00,,,0.00,WUHU21623XXSP,2013-05-20 00:03:00,
2013-05-19 20:08:00,79.0,59.8,30.37,NNW,337,0.0,0.0,52,0.00,,,0.00,WUHU21623XXSP,2013-05-20 00:08:00,
2013-05-19 20:13:00,78.4,59.5,30.37,NNW,337,0.0,0.0,54,0.00,,,0.00,WUHU21623XXSP,2013-05-20 00:13:00,
2013-05-19 20:18:00,77.5,60.0,30.37,NNW,337,0.0,0.0,55,0.00,,,0.00,WUHU21623XXSP,2013-05-20 00:18:00,
2013-05-19 20:23:00,77.4,59.9,30.37,NNW,337,0.0,0.0,55,0.00,,,0.00,WUHU21623XXSP,2013-05-20 00:23:00,
2013-05-19 20:28:00,76.8,59.4,30.37,NNW,337,0.0,0.0,55,0.00,,,0.00,WUHU21623XXSP,2013-05-20 00:28:00,
2013-05-19 20:33:00,76.6,59.4,30.37,NNW,337,0.0,0.0,55,0.00,,,0.00,WUHU21623XXSP,2013-05-20 00:33:00,
2013-05-19 20:38:00,76.1,58.7,30.38,NNW,337,0.0,0.0,55,0.00,,,0.00,WUHU21623XXSP,2013-05-20 00:38:00,
2013-05-19 20:43:00,75.7,59.1,30.38,NNW,337,0.0,0.0,56,0.00,,,0.00,WUHU21623XXSP,2013-05-20 00:43:00,
2013-05-19 20:48:00,75.0,58.7,30.38,North,0,0.0,0.0,57,0.00,,,0.00,WUHU21623XXSP,2013-05-20 00:48:00,
2013-05-19 20:53:00,74.7,58.9,30.37,North,0,0.0,0.0,58,0.00,,,0.00,WUHU21623XXSP,2013-05-20 00:53:00,
2013-05-19 20:58:00,74.3,59.0,30.37,North,0,0.0,0.0,59,0.00,,,0.00,WUHU21623XXSP,2013-05-20 00:58:00,
2013-05-19 21:03:00,73.6,58.3,30.37,North,0,0.0,0.0,59,0.00,,,0.00,WUHU21623XXSP,2013-05-20 01:03:00,
2013-05-19 21:08:00,73.2,58.5,30.36,NNW,337,0.0,0.0,60,0.00,,,0.00,WUHU21623XXSP,2013-05-20 01:08:00,
2013-05-19 21:13:00,73.0,58.3,30.36,NNW,337,0.0,0.0,60,0.00,,,0.00,WUHU21623XXSP,2013-05-20 01:13:00,
2013-05-19 21:18:00,72.3,57.7,30.37,NNW,337,0.0,0.0,60,0.00,,,0.00,WUHU21623XXSP,2013-05-20 01:18:00,
2013-05-19 21:23:00,72.1,57.5,30.37,NNW,337,0.0,0.0,60,0.00,,,0.00,WUHU21623XXSP,2013-05-20 01:23:00,
2013-05-19 21:29:00,71.8,57.6,30.36,NNW,337,0.0,0.0,61,0.00,,,0.00,WUHU21623XXSP,2013-05-20 01:29:00,
2013-05-19 21:34:00,71.4,57.3,30.37,NNW,337,0.0,0.0,61,0.00,,,0.00,WUHU21623XXSP,2013-05-20 01:34:00,
2013-05-19 21:39:00,71.2,57.1,30.38,NNW,337,0.0,0.0,61,0.00,,,0.00,WUHU21623XXSP,2013-05-20 01:39:00,
2013-05-19 21:44:00,70.9,57.1,30.37,NNW,337,0.0,0.0,61,0.00,,,0.00,WUHU21623XXSP,2013-05-20 01:44:00,
2013-05-19 21:49:00,70.5,56.5,30.38,NNW,337,0.0,0.0,61,0.00,,,0.00,WUHU21623XXSP,2013-05-20 01:49:00,
2013-05-19 21:54:00,70.3,56.3,30.38,NNE,22,0.0,0.0,61,0.00,,,0.00,WUHU21623XXSP,2013-05-20 01:54:00,
2013-05-19 21:59:00,70.2,56.6,30.38,NNE,22,0.0,0.0,62,0.00,,,0.00,WUHU21623XXSP,2013-05-20 01:59:00,
2013-05-19 22:04:00,70.0,56.4,30.38,NNE,22,0.0,0.0,62,0.00,,,0.00,WUHU21623XXSP,2013-05-20 02:04:00,
2013-05-19 22:09:00,69.6,56.0,30.38,NNE,22,0.0,0.0,62,0.00,,,0.00,WUHU21623XXSP,2013-05-20 02:09:00,
2013-05-19 22:14:00,69.6,56.0,30.38,NNE,22,0.0,0.0,62,0.00,,,0.00,WUHU21623XXSP,2013-05-20 02:14:00,
2013-05-19 22:19:00,69.1,55.9,30.37,NNE,22,0.0,0.0,63,0.00,,,0.00,WUHU21623XXSP,2013-05-20 02:19:00,
2013-05-19 22:24:00,69.1,55.9,30.38,NNE,22,0.0,0.0,63,0.00,,,0.00,WUHU21623XXSP,2013-05-20 02:24:00,
2013-05-19 22:29:00,68.7,55.6,30.38,NNE,22,0.0,0.0,63,0.00,,,0.00,WUHU21623XXSP,2013-05-20 02:29:00,
2013-05-19 22:34:00,68.7,55.6,30.38,NNE,22,0.0,0.0,63,0.00,,,0.00,WUHU21623XXSP,2013-05-20 02:34:00,
2013-05-19 22:39:00,68.5,55.4,30.38,NNE,22,0.0,0.0,63,0.00,,,0.00,WUHU21623XXSP,2013-05-20 02:39:00,
2013-05-19 22:44:00,68.2,55.5,30.38,NNE,22,0.0,0.0,64,0.00,,,0.00,WUHU21623XXSP,2013-05-20 02:44:00,
2013-05-19 22:49:00,68.2,55.5,30.38,NNE,22,0.0,0.0,64,0.00,,,0.00,WUHU21623XXSP,2013-05-20 02:49:00,
2013-05-19 22:54:00,67.8,55.1,30.39,NNE,22,0.0,0.0,64,0.00,,,0.00,WUHU21623XXSP,2013-05-20 02:54:00,
2013-05-19 22:59:00,67.6,55.1,30.39,NNE,22,0.0,0.0,64,0.00,,,0.00,WUHU21623XXSP,2013-05-20 02:59:00,
2013-05-19 23:04:00,67.6,55.4,30.39,NNE,22,0.0,0.0,65,0.00,,,0.00,WUHU21623XXSP,2013-05-20 03:04:00,
2013-05-19 23:09:00,67.3,55.1,30.39,NNE,22,0.0,0.0,65,0.00,,,0.00,WUHU21623XXSP,2013-05-20 03:09:00,
2013-05-19 23:14:00,67.1,55.3,30.39,NNE,22,0.0,0.0,66,0.00,,,0.00,WUHU21623XXSP,2013-05-20 03:14:00,
2013-05-19 23:19:00,66.9,55.1,30.40,NNE,22,0.0,0.0,66,0.00,,,0.00,WUHU21623XXSP,2013-05-20 03:19:00,
2013-05-19 23:24:00,66.6,55.2,30.40,NNE,22,0.0,0.0,67,0.00,,,0.00,WUHU21623XXSP,2013-05-20 03:24:00,
2013-05-19 23:29:00,66.4,55.5,30.40,NNE,22,0.0,0.0,68,0.00,,,0.00,WUHU21623XXSP,2013-05-20 03:29:00,
2013-05-19 23:34:00,66.0,55.1,30.40,NNE,22,0.0,0.0,68,0.00,,,0.00,WUHU21623XXSP,2013-05-20 03:34:00,
2013-05-19 23:39:00,66.0,55.5,30.39,NNE,22,0.0,0.0,69,0.00,,,0.00,WUHU21623XXSP,2013-05-20 03:39:00,
2013-05-19 23:44:00,65.8,55.4,30.40,NNE,22,0.0,0.0,69,0.00,,,0.00,WUHU21623XXSP,2013-05-20 03:44:00,
2013-05-19 23:49:00,65.5,55.5,30.40,NNE,22,0.0,0.0,70,0.00,,,0.00,WUHU21623XXSP,2013-05-20 03:49:00,
2013-05-19 23:54:00,65.5,55.0,30.40,NNE,22,0.0,0.0,69,0.00,,,0.00,WUHU21623XXSP,2013-05-20 03:54:00,
2013-05-19 23:59:00,65.3,55.3,30.40,NNE,22,0.0,0.0,70,0.00,,,0.00,WUHU21623XXSP,2013-05-20 03:59:00,